Regional Weather Roundup
Issued by NWS Little Rock, AR

Home | Current Version | Previous Version | Graphics & Text | Print | Product List | Glossary On
Versions: 1 2 3 4 5 6 7 8 9 10 11 12 13 14 15 16 17 18 19 20 21 22 23 24 25 26 27 28 29 30 31 32 33 34 35 36 37 38 39 40 41 42
000
ASUS44 KLZK 012105
RWRLZK

WEATHER ROUNDUP FOR ARKANSAS
NATIONAL WEATHER SERVICE LITTLE ROCK AR
400 PM CDT WED OCT 01 2014

NOTE: "FAIR" INDICATES FEW OR NO CLOUDS BELOW 12,000 FEET WITH NO
SIGNIFICANT WEATHER AND/OR OBSTRUCTIONS TO VISIBILITY.

ARZ001-003-010-029-012200-
NORTHWEST ARKANSAS

CITY           SKY/WX    TMP DP  RH WIND       PRES   REMARKS
FAYETTEVILLE   PTSUNNY   81  68  64 S15       29.81F
FORT SMITH     MOSUNNY   87  68  52 S9        29.77F HX  90
HARRISON       SUNNY     83  67  58 S9        29.82F HX  85
BENTONVILLE    PTSUNNY   84  66  54 S14G21    29.80F HX  86
ROGERS         PTSUNNY   83  66  56 S16       29.81F HX  85
SILOAM SPGS    MOSUNNY   84  66  54 S14G25    29.80S HX  86
HIGHFILL       MOSUNNY   84  67  56 S15G24    29.79F HX  86
SPRINGDALE     PTSUNNY   84  68  58 S14G25    29.83F HX  87
$$

ARZ004-005-016-012200-
NORTH CENTRAL ARKANSAS

CITY           SKY/WX    TMP DP  RH WIND       PRES   REMARKS
BATESVILLE     MOSUNNY   90  66  45 S13G18    29.82S HX  92
FLIPPIN        PTSUNNY   86  64  48 S9        29.80F HX  87
MTN HOME       MOSUNNY   85  67  54 S9        29.80F HX  87
$$

ARZ040-041-012200-
WEST CENTRAL ARKANSAS

CITY           SKY/WX    TMP DP  RH WIND       PRES   REMARKS
MENA           MOSUNNY   86  72  62 CALM      29.83S HX  92
MOUNT IDA      MOSUNNY   86  70  58 VRB6      29.81S HX  90
$$

ARZ009-017-025-026-028-012200-
NORTHEAST ARKANSAS

CITY           SKY/WX    TMP DP  RH WIND       PRES   REMARKS
CORNING        LGT RAIN  86  68  54 SE13      29.83F HX  89
JONESBORO      MOSUNNY   86  67  52 S17G23    29.84F HX  89
NEWPORT        MOSUNNY   85  70  60 SE22      29.84F HX  89
WALNUT RIDGE   MOSUNNY   88  66  48 S22       29.81F HX  90
BLYTHEVILLE    MOSUNNY   86  64  47 S10       29.86F HX  87
NW BLYTHEVILLE PTSUNNY   81  70  69 SE3       29.86
$$

ARZ022-023-033-042-044-012200-
CENTRAL ARKANSAS

CITY           SKY/WX    TMP DP  RH WIND       PRES   REMARKS
LITTLE ROCK    MOSUNNY   86  70  58 S8        29.82F HX  90
N LITTLE ROCK  MOSUNNY   85  73  67 SE10G17   29.82F HX  91
JACKSONVILLE   SUNNY     89  71  54 S8        29.82F HX  94
HOT SPRINGS    MOSUNNY   88  68  51 S9        29.82F HX  91
RUSSELLVILLE   MOSUNNY   88  68  51 S7        29.80F HX  91
CLINTON        FAIR      88  70  55 S8        29.81F HX  92
$$

ARZ036-012200-
EAST ARKANSAS

CITY           SKY/WX    TMP DP  RH WIND       PRES   REMARKS
WEST MEMPHIS   LGT RAIN  76  72  87 NE3       29.87R
$$

ARZ050-053-066-070-073-012200-
SOUTHWEST ARKANSAS

CITY           SKY/WX    TMP DP  RH WIND       PRES   REMARKS
ARKADELPHIA    FAIR      89  73  59 SW7       29.81F HX  96
CAMDEN         MOSUNNY   91  66  43 S9        29.81F HX  94
TEXARKANA      PTSUNNY   90  70  51 SE10G17   29.79F HX  95
EL DORADO      MOSUNNY   89  69  51 SE9       29.83F HX  93
DE QUEEN       MOSUNNY   87  71  58 S8        29.78F HX  93
$$

ARZ056-057-069-012200-
SOUTHEAST ARKANSAS

CITY           SKY/WX    TMP DP  RH WIND       PRES   REMARKS
PINE BLUFF     PTSUNNY   86  68  54 SW7       29.83S HX  89
STUTTGART      PTSUNNY   79  72  78 E7        29.85F
MONTICELLO     MOSUNNY   88  66  48 SE10      29.83F HX  90

$$





USA.gov is the U.S. government's official web portal to all federal, state and local government web resources and services.